SHT19B EGPD-EGLL

Flight info

Callsign SHT19B
Flight time 1h 5m
Altitude 24000
Route DCT NAXIL P600 PTH/N0452F380 DCT GRICE/N0446F370 DCT TLA DCT LAKEY DCT NUGRA NUGRA2H
Aircraft A319/M-SDE3FGIJ1KRWXY/LB1

Departure

Time 2026-05-06 12:20
Airport Aberdeen International Airport (EGPD)

Arrival

Time 2026-05-06 13:26
Airport London Heathrow Airport (EGLL)
Time Latitude Longitude Altitude Speed Heading
2026-05-06 12:01 57.20026 -2.20229 221 ft 0 kts 248°
2026-05-06 12:14 57.20031 -2.20203 222 ft 4 kts 244°
2026-05-06 12:14 57.20044 -2.20160 222 ft 4 kts 232°
2026-05-06 12:14 57.20063 -2.20129 222 ft 4 kts 186°
2026-05-06 12:15 57.20076 -2.20130 221 ft 1 kts 158°
2026-05-06 12:15 57.20077 -2.20131 221 ft 0 kts 158°
2026-05-06 12:17 57.20068 -2.20124 222 ft 4 kts 158°
2026-05-06 12:17 57.20030 -2.20097 222 ft 8 kts 159°
2026-05-06 12:17 57.19971 -2.20046 221 ft 10 kts 132°
2026-05-06 12:18 57.19909 -2.19935 219 ft 15 kts 138°
2026-05-06 12:18 57.19808 -2.19810 219 ft 19 kts 162°
2026-05-06 12:18 57.19681 -2.19721 222 ft 21 kts 159°
2026-05-06 12:18 57.19553 -2.19562 222 ft 24 kts 141°
2026-05-06 12:19 57.19426 -2.19368 221 ft 18 kts 129°
2026-05-06 12:19 57.19448 -2.19230 222 ft 5 kts 25°
2026-05-06 12:19 57.19465 -2.19242 221 ft 0 kts 336°
2026-05-06 12:19 57.19578 -2.19327 221 ft 56 kts 338°
2026-05-06 12:20 57.20208 -2.19793 212 ft 136 kts 338°
2026-05-06 12:20 57.21234 -2.20548 588 ft 161 kts 338°
2026-05-06 12:20 57.22293 -2.21301 1399 ft 165 kts 339°
2026-05-06 12:20 57.23387 -2.22013 1915 ft 175 kts 340°
2026-05-06 12:21 57.24605 -2.22772 2243 ft 196 kts 341°
2026-05-06 12:21 57.25985 -2.23610 2628 ft 220 kts 341°
2026-05-06 12:21 57.27419 -2.24990 3056 ft 244 kts 313°
2026-05-06 12:21 57.28165 -2.27844 3760 ft 255 kts 274°
2026-05-06 12:22 57.27789 -2.30988 4841 ft 256 kts 239°
2026-05-06 12:22 57.26561 -2.33396 5932 ft 260 kts 220°
2026-05-06 12:22 57.25080 -2.35346 6957 ft 264 kts 214°
2026-05-06 12:22 57.23512 -2.37160 7906 ft 268 kts 213°
2026-05-06 12:23 57.21911 -2.38992 8844 ft 273 kts 214°
2026-05-06 12:23 57.20301 -2.40896 9778 ft 277 kts 215°
2026-05-06 12:23 57.18681 -2.42878 10622 ft 281 kts 216°
2026-05-06 12:23 57.17060 -2.44916 11480 ft 283 kts 217°
2026-05-06 12:24 57.15400 -2.47039 11959 ft 302 kts 217°
2026-05-06 12:24 57.13612 -2.49344 12226 ft 324 kts 217°
2026-05-06 12:24 57.11741 -2.51761 12826 ft 332 kts 217°
2026-05-06 12:24 57.09832 -2.54223 13582 ft 337 kts 218°
2026-05-06 12:25 57.07902 -2.56712 14305 ft 340 kts 218°
2026-05-06 12:25 57.05933 -2.59250 15004 ft 343 kts 218°
2026-05-06 12:25 57.03965 -2.61777 15698 ft 346 kts 218°
2026-05-06 12:25 57.01983 -2.64317 16377 ft 349 kts 218°
2026-05-06 12:26 56.99979 -2.66877 17070 ft 353 kts 218°
2026-05-06 12:26 56.97958 -2.69459 17727 ft 356 kts 218°
2026-05-06 12:26 56.95921 -2.72061 18408 ft 359 kts 218°
2026-05-06 12:26 56.93866 -2.74681 19002 ft 362 kts 218°
2026-05-06 12:27 56.91789 -2.77323 19594 ft 365 kts 218°
2026-05-06 12:27 56.89695 -2.79982 20189 ft 368 kts 218°
2026-05-06 12:27 56.87579 -2.82664 20778 ft 371 kts 218°
2026-05-06 12:27 56.85449 -2.85364 21342 ft 375 kts 218°
2026-05-06 12:28 56.83299 -2.88092 21872 ft 378 kts 218°
2026-05-06 12:28 56.81132 -2.90841 22427 ft 381 kts 218°
2026-05-06 12:28 56.78940 -2.93613 22953 ft 384 kts 218°
2026-05-06 12:28 56.76738 -2.96390 23475 ft 387 kts 218°
2026-05-06 12:29 56.74510 -2.99191 23935 ft 391 kts 218°
2026-05-06 12:29 56.72261 -3.02007 24357 ft 393 kts 218°
2026-05-06 12:29 56.69998 -3.04840 24770 ft 396 kts 218°
2026-05-06 12:29 56.67715 -3.07702 25168 ft 400 kts 218°
2026-05-06 12:30 56.65421 -3.10573 25577 ft 403 kts 218°
2026-05-06 12:30 56.63101 -3.13470 25984 ft 406 kts 218°
2026-05-06 12:30 56.60767 -3.16381 26390 ft 409 kts 218°
2026-05-06 12:30 56.58416 -3.19308 26807 ft 412 kts 218°
2026-05-06 12:31 56.56039 -3.22263 27203 ft 415 kts 218°
2026-05-06 12:31 56.53650 -3.25227 27596 ft 418 kts 218°
2026-05-06 12:31 56.51241 -3.28212 27986 ft 421 kts 218°
2026-05-06 12:31 56.48784 -3.31256 28378 ft 424 kts 218°
2026-05-06 12:32 56.46340 -3.34280 28756 ft 427 kts 218°
2026-05-06 12:32 56.43875 -3.37321 29130 ft 430 kts 218°
2026-05-06 12:32 56.41415 -3.40417 29486 ft 432 kts 218°
2026-05-06 12:32 56.38963 -3.43581 29845 ft 435 kts 219°
2026-05-06 12:33 56.36504 -3.46800 30175 ft 438 kts 219°
2026-05-06 12:33 56.34035 -3.50048 30467 ft 440 kts 219°
2026-05-06 12:33 56.31552 -3.53292 30771 ft 442 kts 219°
2026-05-06 12:33 56.29046 -3.56535 31075 ft 444 kts 219°
2026-05-06 12:34 56.26530 -3.59769 31470 ft 444 kts 219°
2026-05-06 12:34 56.23900 -3.62680 31873 ft 447 kts 209°
2026-05-06 12:34 56.20992 -3.64696 32286 ft 451 kts 199°
2026-05-06 12:34 56.17896 -3.65719 32708 ft 455 kts 188°
2026-05-06 12:35 56.14728 -3.65706 33130 ft 459 kts 177°
2026-05-06 12:35 56.11581 -3.64644 33555 ft 462 kts 168°
2026-05-06 12:35 56.08480 -3.63133 33961 ft 461 kts 168°
2026-05-06 12:35 56.05385 -3.61634 34322 ft 461 kts 168°
2026-05-06 12:36 56.02290 -3.60145 34659 ft 460 kts 168°
2026-05-06 12:36 55.99197 -3.58661 34995 ft 460 kts 168°
2026-05-06 12:36 55.96101 -3.57176 35321 ft 460 kts 168°
2026-05-06 12:36 55.92976 -3.55678 35633 ft 460 kts 168°
2026-05-06 12:37 55.89886 -3.54200 35935 ft 460 kts 168°
2026-05-06 12:37 55.86796 -3.52727 36229 ft 459 kts 168°
2026-05-06 12:37 55.83710 -3.51259 36520 ft 459 kts 168°
2026-05-06 12:37 55.80625 -3.49789 36799 ft 459 kts 168°
2026-05-06 12:38 55.77538 -3.48321 37022 ft 460 kts 168°
2026-05-06 12:38 55.74446 -3.46855 37072 ft 459 kts 168°
2026-05-06 12:38 55.68292 -3.43930 37061 ft 458 kts 168°
2026-05-06 12:39 55.62131 -3.41014 37055 ft 458 kts 168°
2026-05-06 12:39 55.55985 -3.38119 37055 ft 457 kts 168°
2026-05-06 12:40 55.49832 -3.35279 37053 ft 456 kts 171°
2026-05-06 12:40 55.43607 -3.33365 37047 ft 454 kts 173°
2026-05-06 12:41 55.37327 -3.31476 37049 ft 454 kts 173°
2026-05-06 12:41 55.32149 -3.29914 37050 ft 454 kts 173°
2026-05-06 12:42 55.25930 -3.28042 37049 ft 454 kts 173°
2026-05-06 12:42 55.19707 -3.26166 37050 ft 454 kts 173°
2026-05-06 12:43 55.13442 -3.24285 37046 ft 454 kts 173°
2026-05-06 12:43 55.07216 -3.22431 37049 ft 454 kts 173°
2026-05-06 12:44 55.01000 -3.20582 37049 ft 454 kts 173°
2026-05-06 12:44 54.94772 -3.18734 37050 ft 454 kts 173°
2026-05-06 12:45 54.88551 -3.16901 37055 ft 453 kts 173°
2026-05-06 12:46 54.79222 -3.14144 37055 ft 454 kts 173°
2026-05-06 12:46 54.73000 -3.12313 37058 ft 453 kts 173°
2026-05-06 12:47 54.66779 -3.10491 37059 ft 453 kts 173°
2026-05-06 12:47 54.60562 -3.08689 37063 ft 453 kts 173°
2026-05-06 12:48 54.54299 -3.06883 37062 ft 453 kts 173°
2026-05-06 12:48 54.48082 -3.05082 37067 ft 453 kts 173°
2026-05-06 12:49 54.41870 -3.03285 37069 ft 453 kts 173°
2026-05-06 12:49 54.35650 -3.01490 37072 ft 453 kts 173°
2026-05-06 12:50 54.29392 -2.99694 37073 ft 453 kts 173°
2026-05-06 12:50 54.23199 -2.97703 37075 ft 455 kts 166°
2026-05-06 12:51 54.17185 -2.94250 37078 ft 456 kts 164°
2026-05-06 12:51 54.11175 -2.90786 37076 ft 456 kts 164°
2026-05-06 12:52 54.05118 -2.87333 37074 ft 456 kts 164°
2026-05-06 12:52 53.99105 -2.83924 37074 ft 456 kts 164°
2026-05-06 12:53 53.93100 -2.80504 37076 ft 455 kts 164°
2026-05-06 12:53 53.87094 -2.77081 37072 ft 455 kts 164°
2026-05-06 12:54 53.81084 -2.73681 37067 ft 455 kts 164°
2026-05-06 12:54 53.75040 -2.70261 37069 ft 455 kts 164°
2026-05-06 12:55 53.69040 -2.66875 37063 ft 454 kts 164°
2026-05-06 12:55 53.63038 -2.63514 37064 ft 454 kts 164°
2026-05-06 12:56 53.57061 -2.60181 37064 ft 454 kts 164°
2026-05-06 12:56 53.51067 -2.56836 37068 ft 454 kts 164°
2026-05-06 12:57 53.45075 -2.53506 37063 ft 453 kts 164°
2026-05-06 12:57 53.39100 -2.50195 37061 ft 453 kts 164°
2026-05-06 12:58 53.33107 -2.46887 37062 ft 453 kts 165°
2026-05-06 12:58 53.27126 -2.43599 37060 ft 452 kts 165°
2026-05-06 12:59 53.21153 -2.40326 37061 ft 452 kts 165°
2026-05-06 12:59 53.15145 -2.37021 37057 ft 451 kts 164°
2026-05-06 13:00 53.09137 -2.33736 37050 ft 451 kts 165°
2026-05-06 13:00 53.03212 -2.30306 37046 ft 453 kts 158°
2026-05-06 13:01 52.97779 -2.24955 37037 ft 455 kts 150°
2026-05-06 13:01 52.92399 -2.19285 37039 ft 455 kts 150°
2026-05-06 13:01 52.89723 -2.16482 36683 ft 453 kts 150°
2026-05-06 13:02 52.87086 -2.13725 36154 ft 453 kts 150°
2026-05-06 13:02 52.84394 -2.10917 35582 ft 453 kts 150°
2026-05-06 13:02 52.81726 -2.08141 35014 ft 452 kts 150°
2026-05-06 13:02 52.79063 -2.05378 34443 ft 452 kts 151°
2026-05-06 13:03 52.76366 -2.02584 33817 ft 451 kts 151°
2026-05-06 13:03 52.73708 -1.99830 33084 ft 451 kts 151°
2026-05-06 13:03 52.71052 -1.97079 32259 ft 451 kts 150°
2026-05-06 13:03 52.68412 -1.94341 31540 ft 446 kts 150°
2026-05-06 13:04 52.65796 -1.91630 30834 ft 441 kts 150°
2026-05-06 13:04 52.63212 -1.88961 30151 ft 436 kts 150°
2026-05-06 13:04 52.60620 -1.86289 29353 ft 431 kts 150°
2026-05-06 13:04 52.58083 -1.83680 28589 ft 427 kts 150°
2026-05-06 13:05 52.55576 -1.81111 27845 ft 422 kts 150°
2026-05-06 13:05 52.53900 -1.79396 27376 ft 419 kts 150°
2026-05-06 13:05 52.51440 -1.76881 26654 ft 415 kts 150°
2026-05-06 13:05 52.49003 -1.74389 25952 ft 411 kts 150°
2026-05-06 13:06 52.46583 -1.71915 25358 ft 408 kts 150°
2026-05-06 13:06 52.44180 -1.69461 24866 ft 405 kts 150°
2026-05-06 13:06 52.41760 -1.66994 24380 ft 403 kts 150°
2026-05-06 13:06 52.39391 -1.64580 23906 ft 400 kts 150°
2026-05-06 13:07 52.37033 -1.62177 23432 ft 398 kts 150°
2026-05-06 13:07 52.34691 -1.59799 22900 ft 395 kts 150°
2026-05-06 13:07 52.32354 -1.57433 22391 ft 393 kts 150°
2026-05-06 13:07 52.30042 -1.55095 21896 ft 390 kts 150°
2026-05-06 13:08 52.27715 -1.52747 21362 ft 387 kts 150°
2026-05-06 13:08 52.25430 -1.50444 20859 ft 384 kts 150°
2026-05-06 13:08 52.23164 -1.48159 20356 ft 382 kts 150°
2026-05-06 13:08 52.20984 -1.45705 19845 ft 381 kts 142°
2026-05-06 13:09 52.18980 -1.42894 19335 ft 378 kts 140°
2026-05-06 13:09 52.16996 -1.40104 18827 ft 376 kts 140°
2026-05-06 13:09 52.15017 -1.37332 18336 ft 374 kts 140°
2026-05-06 13:09 52.13053 -1.34592 17791 ft 371 kts 141°
2026-05-06 13:10 52.11095 -1.31871 17245 ft 369 kts 141°
2026-05-06 13:10 52.09468 -1.29611 16793 ft 367 kts 140°
2026-05-06 13:10 52.07563 -1.26965 16284 ft 364 kts 140°
2026-05-06 13:10 52.05642 -1.24298 15767 ft 361 kts 140°
2026-05-06 13:11 52.03738 -1.21666 15260 ft 359 kts 140°
2026-05-06 13:11 52.01840 -1.19046 15005 ft 358 kts 140°
2026-05-06 13:11 51.99941 -1.16430 14997 ft 358 kts 140°
2026-05-06 13:11 51.98042 -1.13811 15004 ft 359 kts 140°
2026-05-06 13:12 51.96138 -1.11183 15001 ft 359 kts 140°
2026-05-06 13:12 51.94242 -1.08563 14903 ft 357 kts 140°
2026-05-06 13:12 51.92377 -1.05985 14708 ft 346 kts 140°
2026-05-06 13:12 51.90574 -1.03499 14550 ft 335 kts 140°
2026-05-06 13:13 51.88828 -1.01102 14424 ft 324 kts 141°
2026-05-06 13:13 51.86930 -0.99208 14283 ft 310 kts 158°
2026-05-06 13:13 51.84947 -0.97918 13966 ft 305 kts 161°
2026-05-06 13:13 51.82968 -0.96695 13661 ft 303 kts 161°
2026-05-06 13:14 51.80990 -0.95481 13176 ft 305 kts 161°
2026-05-06 13:14 51.79008 -0.94272 12677 ft 304 kts 161°
2026-05-06 13:14 51.77025 -0.93069 12156 ft 305 kts 161°
2026-05-06 13:14 51.75042 -0.91872 11642 ft 305 kts 161°
2026-05-06 13:15 51.73049 -0.90677 11133 ft 305 kts 161°
2026-05-06 13:15 51.71062 -0.89491 10633 ft 305 kts 161°
2026-05-06 13:15 51.69069 -0.88303 10154 ft 305 kts 161°
2026-05-06 13:15 51.67125 -0.87148 9650 ft 304 kts 161°
2026-05-06 13:16 51.65141 -0.85987 9107 ft 302 kts 161°
2026-05-06 13:16 51.63175 -0.84854 8577 ft 299 kts 161°
2026-05-06 13:16 51.61219 -0.83742 8055 ft 297 kts 161°
2026-05-06 13:16 51.59274 -0.82649 7545 ft 295 kts 161°
2026-05-06 13:17 51.57343 -0.81578 7038 ft 293 kts 161°
2026-05-06 13:17 51.55420 -0.80530 6509 ft 290 kts 161°
2026-05-06 13:17 51.53482 -0.79506 5928 ft 288 kts 163°
2026-05-06 13:17 51.51510 -0.79136 5350 ft 285 kts 179°
2026-05-06 13:18 51.49530 -0.79142 4779 ft 284 kts 180°
2026-05-06 13:18 51.47558 -0.79189 4196 ft 282 kts 181°
2026-05-06 13:18 51.45601 -0.79244 3620 ft 281 kts 181°
2026-05-06 13:18 51.43658 -0.79301 3149 ft 277 kts 181°
2026-05-06 13:19 51.41832 -0.79782 2993 ft 256 kts 206°
2026-05-06 13:19 51.40462 -0.81574 3008 ft 234 kts 240°
2026-05-06 13:19 51.40001 -0.83804 3004 ft 220 kts 272°
2026-05-06 13:19 51.40389 -0.86080 2999 ft 211 kts 307°
2026-05-06 13:20 51.41514 -0.87506 3003 ft 206 kts 343°
2026-05-06 13:20 51.42915 -0.87544 3004 ft 204 kts 18°
2026-05-06 13:20 51.44050 -0.86200 3007 ft 208 kts 52°
2026-05-06 13:20 51.44776 -0.84187 3009 ft 210 kts 60°
2026-05-06 13:21 51.45430 -0.82088 3003 ft 211 kts 61°
2026-05-06 13:21 51.46077 -0.79972 3007 ft 211 kts 61°
2026-05-06 13:21 51.46721 -0.77861 3000 ft 209 kts 60°
2026-05-06 13:21 51.47331 -0.75850 2996 ft 192 kts 62°
2026-05-06 13:22 51.47622 -0.73816 3045 ft 190 kts 84°
2026-05-06 13:22 51.47633 -0.71693 2941 ft 187 kts 86°
2026-05-06 13:22 51.47643 -0.69623 2733 ft 186 kts 86°
2026-05-06 13:22 51.47655 -0.67514 2490 ft 185 kts 85°
2026-05-06 13:23 51.47666 -0.65451 2246 ft 185 kts 86°
2026-05-06 13:23 51.47677 -0.63399 1985 ft 183 kts 86°
2026-05-06 13:23 51.47688 -0.61347 1740 ft 184 kts 86°
2026-05-06 13:23 51.47697 -0.59360 1483 ft 170 kts 85°
2026-05-06 13:24 51.47705 -0.57555 1264 ft 155 kts 85°
2026-05-06 13:24 51.47716 -0.55905 1083 ft 141 kts 84°
2026-05-06 13:24 51.47727 -0.54397 791 ft 134 kts 85°
2026-05-06 13:24 51.47728 -0.52892 594 ft 132 kts 85°
2026-05-06 13:25 51.47738 -0.51409 430 ft 130 kts 85°
2026-05-06 13:25 51.47745 -0.49948 270 ft 131 kts 85°
2026-05-06 13:25 51.47749 -0.48946 175 ft 131 kts 85°
2026-05-06 13:25 51.47753 -0.47540 87 ft 113 kts 89°
2026-05-06 13:26 51.47759 -0.46656 90 ft 48 kts 90°
2026-05-06 13:26 51.47749 -0.46217 88 ft 28 kts 115°
2026-05-06 13:26 51.47614 -0.46068 89 ft 21 kts 180°
2026-05-06 13:26 51.47515 -0.46186 87 ft 19 kts 270°
2026-05-06 13:27 51.47516 -0.46410 87 ft 21 kts 271°
2026-05-06 13:27 51.47515 -0.46662 87 ft 24 kts 267°
2026-05-06 13:27 51.47493 -0.46932 87 ft 26 kts 270°
2026-05-06 13:27 51.47492 -0.47230 87 ft 28 kts 270°
2026-05-06 13:28 51.47492 -0.47551 87 ft 30 kts 270°
2026-05-06 13:28 51.47490 -0.47879 87 ft 28 kts 268°
2026-05-06 13:28 51.47489 -0.48191 87 ft 27 kts 270°
2026-05-06 13:28 51.47488 -0.48482 88 ft 25 kts 270°
2026-05-06 13:29 51.47487 -0.48760 90 ft 24 kts 269°
2026-05-06 13:29 51.47494 -0.48929 87 ft 10 kts 271°
2026-05-06 13:29 51.47444 -0.48955 89 ft 8 kts 179°
2026-05-06 13:29 51.47421 -0.48956 87 ft 0 kts 180°